Gorizont

operational
NORAD ID: 21533 Int'l Des: 1991-046 Owner: MSVYAZ Country: SU
HEOCIRCULAR

About Gorizont

Description loading...

Live Position

Loading 3D Globe...

Upcoming Passes

Altitude History

Altitude vs Time

uPlot chart will show altitude changes over time

Two-Line Element Set

1 21533U 91046A 26062.57822587 -.00000296 00000-0 00000-0 0 9992
2 21533 13.8171 342.2310 0008687 326.0371 207.4670 0.98911504 45645
Epoch: Mar 3, 2026 • Age: 40 hours

Current Status

Altitude 36197.3 km
Velocity 3.06 km/s
Sub-Earth Point -3.34°S, 140.55°E
Launch Date Jul 1, 1991
Age 34.6 years
Type other

Technical Details

Classification Payload
Mass 2120.00 kg
Dry Mass 2000.00 kg
Total Mass 2120.00 kg
Length 5.50 m
Diameter 3.30 m
Span 9.50 m
Shape Cyl + 2 Pan
Manufacturer NPOPM
Bus Type Gorizont
Phase Status In Orbit
Owner/State MSVYAZ/SU

Large Constellations

Loading constellations...